STARLINK-32118, 60280

Orbit data source: Space-Track

STARLINK-32118, 60280 is a payload satellite owned by SpaceX/Seattle (US) in LEO that was launched on Sun, 28 Jul 2024 UTC via an FALCON 9 launch vehicle from the Air Force Eastern Test Range (AFETR). Payload-class satellites include a variety of spacecraft equipped with specific instruments for various scientific and technological missions. These include communications satellites like Starlink; space stations such as the ISS; scientific satellites like the Hubble; Earth observation satellites from companies like Planet Labs, Umbra, and HawkEye 360; GPS; miniature CubeSats for education and research; and military/defense satellites.

Loading next visibility...
Identifier
60280, 2024-132C
Orbit
LEO
Last TLE update
20 hours ago
Origin
Manufacturer
SpaceX/Seattle
Mission
Operational spacecraft
Bus & Motor
STARLINK V2M, Unknown motor
Mass
730 kg wet, ~700 kg dry
Launch date (UTC)
2024-07-28 (9 months ago)
Launch vehicle
FALCON 9
Launch site
Air Force Eastern Test Range (AFETR)
Object type
Payload
Rocket body
Debris
Shape & HBR
Unknown
Radar Cross Section
Large (>1 m²)

Expand to show TLE details & history

TLE from 20 hours ago
0 STARLINK-32118
1 60280U 24132C   25128.93772216 -.00005306  00000-0 -16705-3 0  9991
2 60280  53.1612  27.8200 0000593  67.2322 292.8742 15.30223883 44900
Epoch: 2025-05-08T22:30Z
Definitive object data (Epoch: 2025-05-08T22:30:19.194Z)
Latitude
0.00002°
Longitude
-176.76101°
Altitude
475.886 km
Speed
7.629 km/s
True Right ascension
01h 51m 16s
True Declination
0° 00' 00"
Sunlit
Object was in daylight at TLE epoch
Visualization TLE readout
Latitude
-45.71003°
Longitude
129.55423°
Altitude
490.965 km
Speed
7.619 km/s
Apparent Right ascension
18h 28m 36s
Apparent Declination
-58° 54' 52"
Sunlit
Object is in daylight
Visualization observer readout
Local Sidereal Time
02:47:19
Azimuth
222.195° SW
Elevation
-50.79°
Doppler factor
1
Orbital elements
Apogee altitude
475.806 km
Perigee altitude
474.994 km
Semi-major axis
6,853.537 km
Eccentricity
0.0000593
Inclination
53.1612°
RAAN
27.82°
Arg. of periapsis
67.2322°
True anomaly
292.86794°
Mean anomaly
292.8742°
Eccentric anomaly
292.87107°
Mean motion
3.82535 °/min
BSTAR
-0.00016705
Orbital period
94.11 mins
Loading maneuver chart data...
Loading SW <> Apogee altitude chart data...
Loading historical data...
Loading historical data...
Loading historical data...
Loading historical data...
Loading historical data...
Loading historical data...
Loading historical data...

STARLINK-32118 Visibility forecast

Observer location: undefined°, undefined°

Span
Click to sort rows by Start time (UTC) header in descending order
Start Az.
Max El. time (UTC)
Max El. Az.
Max El.
End time (UTC)
End Az.
5 mins2025-05-09 19:02:29.229Z182.926° SSW2025-05-09 19:04:29.229Z144.287° SSE23.475°2025-05-09 19:07:29.229Z77.93° E
5 mins2025-05-09 20:40:29.229Z267.679° W2025-05-09 20:42:29.229Z316.8° NNW30.863°2025-05-09 20:45:29.229Z31.947° NE
5 mins2025-05-10 01:37:29.229Z338.796° N2025-05-10 01:39:29.229Z23.876° NE25.105°2025-05-10 01:42:29.229Z87.095° E
5 mins2025-05-10 03:15:29.229Z286.383° WNW2025-05-10 03:17:29.229Z233.208° WSW32.541°2025-05-10 03:20:29.229Z159.743° S
|